Regional Weather Roundup
Issued by NWS

Home | Current Version | Previous Version | Graphics & Text | Print | Product List | Glossary On
Versions: 1 2 3 4 5 6 7 8 9 10 11 12 13 14 15 16 17 18 19 20 21 22 23 24 25 26 27 28 29 30 31 32 33 34 35 36 37 38 39 40 41 42 43 44 45 46 47 48 49 50
000
ASUS43 KMKX 170621
RWRWI

WISCONSIN REGIONAL WEATHER ROUNDUP
NATIONAL WEATHER SERVICE MILWAUKEE/SULLIVAN WI
100 AM CDT WED SEP 17 2014

NOTE: "FAIR" INDICATES FEW OR NO CLOUDS BELOW 12,000 FEET WITH NO
SIGNIFICANT WEATHER AND/OR OBSTRUCTIONS TO VISIBILITY.

WIZ001-002-006>008-014>016-023>028-170700-
NORTHWEST WISCONSIN

CITY           SKY/WX    TMP DP  RH WIND       PRES   REMARKS
SUPERIOR ARPT  PTCLDY    48  44  85 SW6       29.96F
6HR MIN TEMP:  47; 6HR MAX TEMP:  61;

ASHLAND        CLOUDY    52  44  74 SW6       29.98F
6HR MIN TEMP:  52; 6HR MAX TEMP:  57;

HAYWARD        CLEAR     40  38  93 CALM      30.00F
6HR MIN TEMP:  40; 6HR MAX TEMP:  62;

SIREN          CLEAR     44  42  92 CALM      30.00F
6HR MIN TEMP:  44; 6HR MAX TEMP:  60;

RICE LAKE      FOG       42  41  97 CALM      30.03F VSB 1/2
6HR MIN TEMP:  42; 6HR MAX TEMP:  60;

LADYSMITH      CLEAR     42  40  95 CALM      30.03F
6HR MIN TEMP:  42; 6HR MAX TEMP:  58;

EAU CLAIRE     CLEAR     43  41  93 CALM      30.01F
6HR MIN TEMP:  42; 6HR MAX TEMP:  61;

MENOMONIE      CLEAR     46  44  95 CALM      30.02F
6HR MIN TEMP:  45; 6HR MAX TEMP:  60;

NEW RICHMOND   MOCLDY    47  43  85 SE3       30.01F
6HR MIN TEMP:  46; 6HR MAX TEMP:  60;

OSCEOLA        PTCLDY    45  45 100 CALM      30.02F
6HR MIN TEMP:  44; 6HR MAX TEMP:  62;

$$

WIZ003>005-009-010-017-018-170700-
NORTH CENTRAL WISCONSIN

CITY           SKY/WX    TMP DP  RH WIND       PRES   REMARKS
WOODRUFF       PTCLDY    44  41  88 CALM      30.01F
6HR MIN TEMP:  44; 6HR MAX TEMP:  59;

RHINELANDER    CLEAR     43  40  89 W3        30.02F
6HR MIN TEMP:  43; 6HR MAX TEMP:  54;

EAGLE RIVER    CLOUDY    44  42  96 CALM      30.01S
6HR MIN TEMP:  40; 6HR MAX TEMP:  55;

LAND O LAKES   CLOUDY    50  43  78 CALM      30.01S
6HR MIN TEMP:  47; 6HR MAX TEMP:  59;

PHILLIPS       CLEAR     40  40  99 CALM      30.01F
6HR MIN TEMP:  40; 6HR MAX TEMP:  57;

TOMAHAWK       CLEAR     37  36  95 CALM      30.03F
6HR MIN TEMP:  37; 6HR MAX TEMP:  56;

MEDFORD        CLEAR     40  39  97 CALM      30.02F
6HR MIN TEMP:  40; 6HR MAX TEMP:  55;

MERRILL        MOCLDY    38  38  99 CALM      30.02F
6HR MIN TEMP:  38; 6HR MAX TEMP:  57;

$$

WIZ029-030-035-036-043>047-170700-
CENTRAL WISCONSIN

CITY           SKY/WX    TMP DP  RH WIND       PRES   REMARKS
WAUSAU         CLEAR     45  43  93 CALM      30.02F
6HR MIN TEMP:  45; 6HR MAX TEMP:  59;

MOSINEE        CLEAR     43  43 100 CALM      30.04S
MARSHFIELD     CLEAR     45  42  89 CALM      30.03F
6HR MIN TEMP:  43; 6HR MAX TEMP:  58;

STEVENS POINT  CLEAR     40  38  93 CALM      30.04F
6HR MIN TEMP:  39; 6HR MAX TEMP:  58;

WAUPACA        CLEAR     44  43  94 CALM      30.04F
6HR MIN TEMP:  44; 6HR MAX TEMP:  61;

WAUTOMA        CLEAR     40  39  96 CALM      30.06S
6HR MIN TEMP:  40; 6HR MAX TEMP:  59;

WISC RAPIDS    CLEAR     43  41  93 SW3       30.05F
6HR MIN TEMP:  42; 6HR MAX TEMP:  56;

CAMP DOUGLAS   CLEAR     37  37 100 E2        30.04F
6HR MIN TEMP:  35; 6HR MAX TEMP:  55;

$$

WIZ011>013-019>022-031-037>040-048>050-170700-
NORTHEAST WISCONSIN

CITY           SKY/WX    TMP DP  RH WIND       PRES   REMARKS
ANTIGO         CLEAR     41  40  97 CALM      30.03F
6HR MIN TEMP:  41; 6HR MAX TEMP:  54;

STURGEON BAY   CLEAR     52  45  76 SW6       30.02F
6HR MIN TEMP:  52; 6HR MAX TEMP:  59;

GREEN BAY      CLEAR     46  44  93 CALM      30.03F
6HR MIN TEMP:  45; 6HR MAX TEMP:  58;

MANITOWOC      CLEAR     50  44  80 W3        30.04F
6HR MIN TEMP:  48; 6HR MAX TEMP:  59;

APPLETON       CLEAR     46  41  81 W5        30.05S
CLINTONVILLE   CLEAR     45  41  87 CALM      30.03F
OSHKOSH        CLEAR     50  43  77 SW6       30.04F
6HR MIN TEMP:  48; 6HR MAX TEMP:  59;

$$

WIZ032>034-041-042-053>061-170700-
SOUTHWEST WISCONSIN

CITY           SKY/WX    TMP DP  RH WIND       PRES   REMARKS
LA CROSSE      CLEAR     49  46  90 SE6       30.04F
6HR MIN TEMP:  49; 6HR MAX TEMP:  64;

SPARTA         CLEAR     38  38 100 CALM      30.05F
6HR MIN TEMP:  38; 6HR MAX TEMP:  56;

VIROQUA        FAIR      50  44  78 S6        30.05S
6HR MIN TEMP:  50; 6HR MAX TEMP:  57;

BOSCOBEL       FOG       47  46  97 CALM      30.07F VSB 1/4
6HR MIN TEMP:  44; 6HR MAX TEMP:  61;

PRAIRIE DU CHI CLEAR     46  44  93 CALM      30.06S
6HR MIN TEMP:  46; 6HR MAX TEMP:  62;

PLATTEVILLE    FAIR      47  43  87 CALM      30.08S
6HR MIN TEMP:  47; 6HR MAX TEMP:  60;

$$

WIZ056-057-062-063-064-067-068-170700-
SOUTH CENTRAL WISCONSIN

CITY           SKY/WX    TMP DP  RH WIND       PRES   REMARKS
BARABOO/DELLS  CLEAR     44  42  93 S3        30.06S
6HR MIN TEMP:  43; 6HR MAX TEMP:  58;

LONE ROCK      HAZE      46  41  82 CALM      30.07S VSB 1/2
6HR MIN TEMP:  45; 6HR MAX TEMP:  63;

WATERTOWN      CLEAR     41  40  99 CALM      30.06S
6HR MIN TEMP:  40; 6HR MAX TEMP:  56;

MADISON        CLEAR     44  42  93 CALM      30.06F
6HR MIN TEMP:  44; 6HR MAX TEMP:  56;

MIDDLETON      FAIR      42  42 100 CALM      30.07S
6HR MIN TEMP:  41; 6HR MAX TEMP:  56;

MONROE         CLEAR     50  43  76 SW7       30.07S
JANESVILLE     CLEAR     45  43  93 CALM      30.06F
$$

WIZ051-052-058>065-066-070>072-170700-
SOUTHEAST WISCONSIN

CITY           SKY/WX    TMP DP  RH WIND       PRES   REMARKS
MILWAUKEE      CLEAR     50  44  80 SW7       30.07F
6HR MIN TEMP:  50; 6HR MAX TEMP:  56;

WAUKESHA       CLEAR     46  43  87 S6        30.08S
MILWAUKEE/TIMM CLEAR     45  43  93 CALM      30.07F
RACINE         CLEAR     47  44  90 SW6       30.09F
6HR MIN TEMP:  47; 6HR MAX TEMP:  57;

BURLINGTON     CLEAR     39  39 100 CALM      30.07F FOG
6HR MIN TEMP:  38; 6HR MAX TEMP:  53;

KENOSHA        CLEAR     46  44  93 SW5       30.08F
6HR MIN TEMP:  44; 6HR MAX TEMP:  56;

FOND DU LAC    CLEAR     45  41  86 SW3       30.05F
6HR MIN TEMP:  45; 6HR MAX TEMP:  56;

SHEBOYGAN      CLEAR     45  42  89 CALM      30.05F
6HR MIN TEMP:  44; 6HR MAX TEMP:  54; 6HR PCP: TRACE;

WEST BEND      CLEAR     41  39  93 CALM      30.06F
JUNEAU         CLEAR     44  42  92 CALM      30.07F
6HR MIN TEMP:  44; 6HR MAX TEMP:  57;

$$

LSZ147-162-170700-
LAKE SUPERIOR

STATION/POSITION TIME  TEMP    WIND        PRES    WAVE
                       AIR SEA DIR/SP/G            HT/PER
                 (UTC) (F)     (DEG/KT/KT) (MB)    (FT/S)
W MID LAKE BUOY  0550   47 47   80/ 10/ 12 1014.5F   2/ 4
DEVILS ISLAND    0600   54     280/  6/  8 1014.6S
PORT WING        0540   58     190/  7/ 10 1014.9S
SAXON HARBOR     0540   57     190/  3/  9 1015.2S
$$

LMZ867-665-643>646-170700-
LAKE MICHIGAN

STATION/POSITION TIME  TEMP    WIND        PRES    WAVE
                       AIR SEA DIR/SP/G            HT/PER
                 (UTC) (F)     (DEG/KT/KT) (MB)    (FT/S)
N MID LAKE BUOY  0550   59 59  270/ 16/ 19 1015.5F   2/ 5
NORTHPORT PIER   0500   58     270/  4/ 10 1015.9S
KEWAUNEE LAKESHO 0600   50     300/  5/  6 1015.7F
SHEBOYGAN LAKESH 0600   51 48  250/  9/  9 1017.9F
PORT WASHINGTON  0540   49     270/  3/  4 1018.6F
ATWATER BUOY     0600   56     210/  8/ 10 1019.1F
MILWAUKEE LAKESH 0600   54     230/  8/  9   N/A
S MID LAKE BUOY  0550   60 64  220/  6/  8 1018.6F   1
KENOSHA   LAKESH 0600   55     230/  7/ 10 1018.3S
$$

TC  - TEMPERATURE IN CELSIUS
VSB - VISIBILITY IN STATUTE MILES
WCI - WIND CHILL INDEX
HX  - HEAT INDEX




USA.gov is the U.S. government's official web portal to all federal, state and local government web resources and services.